GW3793 Weather Reports


Display with metric or nautical units.
time (UTC)temp
F
wind
direction
speed
MPH
gust
MPH
rain 1hr
in
rain 24hr
in
rain mn
in
humidity
%
barometer
mb
20260507004503 69 314 2.0 10.0 0.00 0.00 0.00 31 1010.6
20260507003603 69 285 2.0 10.0 0.00 0.00 0.00 31 1010.8
20260507002703 70 294 2.0 10.0 0.00 0.00 0.00 30 1011.0
20260507001803 70 293 2.0 7.0 0.00 0.00 0.00 30 1010.8
20260507000903 70 297 2.0 7.0 0.00 0.00 0.00 31 1010.6
20260507000003 71 297 2.0 6.0 0.00 0.00 0.00 29 1010.5
20260506235403 71 310 2.0 15.0 0.00 0.00 0.00 30 1010.5
20260506234503 70 306 2.0 7.0 0.00 0.00 0.00 29 1010.5
20260506233603 71 292 2.0 5.0 0.00 0.00 0.00 29 1010.5
20260506232703 71 287 2.0 7.0 0.00 0.00 0.00 29 1010.3
20260506231803 71 287 2.0 5.0 0.00 0.00 0.00 30 1010.6
20260506230903 72 263 2.0 5.0 0.00 0.00 0.00 30 1010.7
20260506230003 71 214 2.0 9.0 0.00 0.00 0.00 30 1010.7
20260506225403 71 28 2.0 6.0 0.00 0.00 0.00 30 1010.7
20260506224503 72 285 2.0 6.0 0.00 0.00 0.00 31 1010.6
20260506223603 72 312 2.0 8.0 0.00 0.00 0.00 31 1011.0
20260506222703 71 256 1.0 4.0 0.00 0.00 0.00 32 1010.8
20260506221803 71 266 1.0 4.0 0.00 0.00 0.00 32 1010.7
20260506220903 71 252 1.0 4.0 0.00 0.00 0.00 30 1011.1
20260506220003 71 256 2.0 7.0 0.00 0.00 0.00 31 1011.1
20260506215403 71 222 2.0 7.0 0.00 0.00 0.00 32 1011.0
20260506214503 71 287 2.0 6.0 0.00 0.00 0.00 31 1011.4
20260506213603 71 315 2.0 10.0 0.00 0.00 0.00 31 1011.3
20260506212703 70 327 2.0 6.0 0.00 0.00 0.00 32 1011.6
20260506211803 70 275 1.0 6.0 0.00 0.00 0.00 34 1011.7
20260506210904 70 270 1.0 5.0 0.00 0.00 0.00 34 1012.0
20260506210003 70 269 1.0 4.0 0.00 0.00 0.00 32 1011.6
20260506205403 71 213 2.0 6.0 0.00 0.00 0.00 33 1011.6
20260506204503 71 208 2.0 6.0 0.00 0.00 0.00 33 1011.6
20260506203603 71 225 2.0 6.0 0.00 0.00 0.00 33 1011.9
20260506202703 70 310 2.0 9.0 0.00 0.00 0.00 34 1012.2
20260506201803 71 251 2.0 6.0 0.00 0.00 0.00 34 1011.9
20260506200903 71 195 3.0 8.0 0.00 0.00 0.00 33 1011.9
20260506200003 70 209 2.0 6.0 0.00 0.00 0.00 32 1012.1
20260506195403 70 216 2.0 7.0 0.00 0.00 0.00 33 1012.3
20260506194503 69 256 2.0 6.0 0.00 0.00 0.00 35 1012.2
20260506193603 70 285 2.0 5.0 0.00 0.00 0.00 34 1012.4
20260506192703 70 167 3.0 12.0 0.00 0.00 0.00 35 1012.4
20260506192018 69 182 3.0 12.0 0.00 0.00 0.00 35 1012.1
20260506190903 68 215 2.0 6.0 0.00 0.00 0.00 37 1012.8
20260506190216 67 302 2.0 4.0 0.00 0.00 0.00 37 1012.8
20260506185403 66 164 3.0 6.0 0.00 0.00 0.00 37 1012.8
20260506184503 65 345 2.0 6.0 0.00 0.00 0.00 37 1013.3
20260506183603 65 276 2.0 6.0 0.00 0.00 0.00 37 1012.9
20260506182703 66 252 2.0 5.0 0.00 0.00 0.00 37 1013.0
20260506181803 66 282 2.0 7.0 0.00 0.00 0.00 37 1013.2
20260506181117 65 299 1.0 7.0 0.00 0.00 0.00 39 1013.1
20260506180004 65 246 2.0 5.0 0.00 0.00 0.00 40 1013.0
20260506175403 64 216 2.0 5.0 0.00 0.00 0.00 41 1013.2
20260506174717 64 236 2.0 4.0 0.00 0.00 0.00 41 1013.4
20260506173603 63 231 1.0 4.0 0.00 0.00 0.00 43 1013.2
20260506172703 62 285 1.0 4.0 0.00 0.00 0.00 41 1013.5
20260506171803 62 247 1.0 6.0 0.00 0.00 0.00 43 1013.4
20260506170903 62 235 1.0 6.0 0.00 0.00 0.00 45 1013.7
20260506170218 61 73 1.0 5.0 0.00 0.00 0.00 47 1013.7
20260506165403 61 19 2.0 7.0 0.00 0.00 0.00 46 1013.5
20260506164503 60 315 1.0 6.0 0.00 0.00 0.00 45 1013.7
20260506163818 60 275 1.0 5.0 0.00 0.00 0.00 48 1013.5
20260506162917 59 276 1.0 4.0 0.00 0.00 0.00 49 1013.9
20260506161803 58 234 1.0 4.0 0.00 0.00 0.00 50 1013.7
20260506160903 58 242 1.0 3.0 0.00 0.00 0.00 52 1013.9
20260506160003 57 251 1.0 3.0 0.00 0.00 0.00 53 1014.1
20260506155403 56 247 0.0 3.0 0.00 0.00 0.00 53 1013.8
20260506154503 56 234 1.0 3.0 0.00 0.00 0.00 54 1013.9
20260506153603 56 230 1.0 5.0 0.00 0.00 0.00 55 1014.0
20260506152703 55 234 0.0 5.0 0.00 0.00 0.00 56 1013.9
20260506151803 54 205 0.0 3.0 0.00 0.00 0.00 57 1013.9
20260506150903 54 234 0.0 2.0 0.00 0.00 0.00 58 1013.9
20260506150217 53 247 0.0 2.0 0.00 0.00 0.00 58 1014.0
20260506145403 53 231 0.0 2.0 0.00 0.00 0.00 59 1013.9
20260506144503 53 209 0.0 4.0 0.00 0.00 0.00 62 1014.1
20260506143603 51 167 0.0 2.0 0.00 0.00 0.00 68 1014.0
20260506142703 49 177 0.0 2.0 0.00 0.00 0.00 71 1013.7
20260506141803 48 216 0.0 1.0 0.00 0.00 0.00 72 1013.7
20260506140903 46 171 1.0 2.0 0.00 0.00 0.00 75 1013.9
20260506140004 44 167 0.0 2.0 0.00 0.00 0.00 76 1013.8
20260506135403 43 159 0.0 2.0 0.00 0.00 0.00 77 1013.8
20260506134717 42 143 0.0 2.0 0.00 0.00 0.00 77 1013.4
20260506133603 41 23 0.0 2.0 0.00 0.00 0.00 79 1013.7
20260506132703 41 136 0.0 1.0 0.00 0.00 0.00 79 1013.5
20260506131803 41 136 0.0 2.0 0.00 0.00 0.00 78 1013.7
20260506131117 40 121 0.0 2.0 0.00 0.00 0.00 77 1013.5
20260506130003 40 126 0.0 2.0 0.00 0.00 0.00 77 1013.4
20260506125403 40 0 0.0 0.0 0.00 0.00 0.00 77 1013.2
20260506124503 40 18 0.0 1.0 0.00 0.00 0.00 77 1013.4
20260506123603 40 35 0.0 1.0 0.00 0.00 0.00 77 1013.4
20260506122703 40 0 0.0 0.0 0.00 0.00 0.00 77 1013.4
20260506121803 40 0 0.0 0.0 0.00 0.00 0.00 76 1013.0
20260506120903 41 120 0.0 2.0 0.00 0.00 0.00 76 1013.2
20260506120003 41 113 0.0 2.0 0.00 0.00 0.00 75 1013.0
20260506115404 41 23 0.0 1.0 0.00 0.00 0.00 74 1013.4
20260506114503 41 21 0.0 1.0 0.00 0.00 0.00 74 1013.3
20260506113818 41 122 1.0 2.0 0.00 0.00 0.00 74 1013.3
20260506112704 41 19 0.0 1.0 0.00 0.00 0.00 73 1013.2
20260506111803 41 6 0.0 3.0 0.00 0.00 0.00 74 1013.2
20260506110903 41 218 0.0 1.0 0.00 0.00 0.00 72 1013.2
20260506110004 42 99 0.0 2.0 0.00 0.00 0.00 72 1012.8
20260506105403 42 79 0.0 2.0 0.00 0.00 0.00 73 1012.9
20260506104503 42 346 1.0 4.0 0.00 0.00 0.00 74 1012.9
20260506103603 42 354 0.0 4.0 0.00 0.00 0.00 74 1013.0
20260506102703 42 156 0.0 2.0 0.00 0.00 0.00 73 1013.0
20260506101803 43 140 0.0 1.0 0.00 0.00 0.00 70 1012.8
20260506100903 43 27 0.0 1.0 0.00 0.00 0.00 69 1012.9
20260506100004 43 101 0.0 2.0 0.00 0.00 0.00 69 1012.8
20260506095617 43 111 0.0 2.0 0.00 0.00 0.00 69 1013.0
20260506094503 43 2 0.0 2.0 0.00 0.00 0.00 69 1012.6
20260506093603 43 56 0.0 2.0 0.00 0.00 0.00 68 1012.9
20260506092703 44 163 0.0 2.0 0.00 0.00 0.00 66 1013.1
20260506091803 44 164 0.0 1.0 0.00 0.00 0.00 64 1012.9
20260506090903 44 162 0.0 2.0 0.00 0.00 0.00 63 1012.6
20260506090004 45 134 0.0 2.0 0.00 0.00 0.00 62 1012.6
20260506085618 45 158 0.0 2.0 0.00 0.00 0.00 62 1012.8
20260506084718 45 113 1.0 3.0 0.00 0.00 0.00 61 1012.8
20260506083604 45 23 0.0 3.0 0.00 0.00 0.00 61 1013.0
20260506082703 45 4 0.0 2.0 0.00 0.00 0.00 62 1012.9
20260506081803 45 5 0.0 2.0 0.00 0.00 0.00 61 1012.5
20260506080903 46 44 0.0 2.0 0.00 0.00 0.00 61 1012.9
20260506072703 47 123 0.0 3.0 0.00 0.00 0.00 59 1012.6
20260506071803 47 132 0.0 3.0 0.00 0.00 0.00 59 1012.6
20260506071117 47 0 0.0 0.0 0.00 0.00 0.00 58 1012.6
20260506061803 49 173 0.0 2.0 0.00 0.00 0.00 54 1012.2
20260506060903 50 162 0.0 3.0 0.00 0.00 0.00 52 1012.2
20260506050903 52 40 0.0 2.0 0.00 0.00 0.00 48 1012.3
20260506044718 54 0 0.0 0.0 0.00 0.00 0.00 45 1012.3
20260506043603 54 5 0.0 1.0 0.00 0.00 0.00 44 1012.3
20260506042703 54 0 0.0 0.0 0.00 0.00 0.00 45 1012.4
20260506041804 55 351 0.0 2.0 0.00 0.00 0.00 45 1012.4
20260506040903 56 0 0.0 0.0 0.00 0.00 0.00 45 1012.3
20260506040003 56 350 0.0 2.0 0.00 0.00 0.00 44 1012.2
20260506035616 56 350 0.0 2.0 0.00 0.00 0.00 44 1012.3
20260506034503 58 347 1.0 2.0 0.00 0.00 0.00 43 1012.2
20260506033603 58 354 1.0 2.0 0.00 0.00 0.00 41 1012.3
20260506032703 59 355 1.0 2.0 0.00 0.00 0.00 39 1012.1
20260506032018 60 360 0.0 2.0 0.00 0.00 0.00 38 1012.2
20260506030904 62 1 0.0 2.0 0.00 0.00 0.00 35 1012.2
20260506030003 63 5 0.0 2.0 0.00 0.00 0.00 34 1012.0
20260506025403 64 358 0.0 3.0 0.00 0.00 0.00 33 1012.1
20260506024503 65 211 0.0 3.0 0.00 0.00 0.00 31 1012.3
20260506023603 66 326 0.0 5.0 0.00 0.00 0.00 30 1012.2
20260506022703 67 280 1.0 5.0 0.00 0.00 0.00 29 1012.3
20260506021803 67 269 1.0 2.0 0.00 0.00 0.00 29 1012.2
20260506020903 67 170 0.0 2.0 0.00 0.00 0.00 29 1012.4
20260506020003 68 260 1.0 3.0 0.00 0.00 0.00 29 1012.4
20260506015403 68 293 1.0 4.0 0.00 0.00 0.00 28 1012.2
20260506014503 69 269 1.0 4.0 0.00 0.00 0.00 27 1012.1
20260506013603 69 307 1.0 4.0 0.00 0.00 0.00 26 1012.3
20260506012703 69 321 1.0 5.0 0.00 0.00 0.00 26 1012.2
20260506012017 69 334 1.0 7.0 0.00 0.00 0.00 27 1012.3
20260506011119 69 317 1.0 7.0 0.00 0.00 0.00 27 1012.4
20260506010218 69 23 1.0 4.0 0.00 0.00 0.00 26 1012.4
20260506005617 69 210 1.0 4.0 0.00 0.00 0.00 27 1012.5